Tracking 19562 objects as of 21-Mar-2019
HD Live streaming from Space Station
objects crossing your sky now

MOLNIYA 1-53

Track MOLNIYA 1-53 now!
MOLNIYA 1-53 is classified as:


NORAD ID: 13070
Int'l Code: 1982-015A
Perigee: 259.3 km
Apogee: 40,099.7 km
Inclination: 62.5 °
Period: 717.6 minutes
Semi major axis: 26550 km
RCS: 15.1776 m2 (large)
Launch date: February 26, 1982
Source: Commonwealth of Independent States (former USSR) (CIS)
Launch site: PLESETSK MISSILE AND SPACE COMPLEX (PKMTR)
aabbcc
Your satellite tracking list
Your tracking list is empty




NASA's NSSDC Master Catalog

Two Line Element Set (TLE):
1 13070U 82015A   19077.92482349  .00000852  00000-0  27639-3 0  9997
2 13070  62.5017  38.9089 7502768 269.6528  13.1975  2.00675447271443
Source of the keplerian elements: AFSPC